START_TIME,STEP,MOV.,M35,t_acc.,PL05,t_acc.,PL06,t_acc.,PL07,t_acc.
1979-07-05 15:00:24.630 ,1,0,0.,4.8,4.,4.8,1.,4.8,0.,4.8
1979-07-05 15:00:29.430 ,1,0,0.,4.8,4.,4.8,3.,4.8,0.,4.8
1979-07-05 15:00:34.230 ,1,0,0.,4.8,2.,4.8,0.,4.8,2.,4.8
1979-07-05 15:00:39.030 ,1,0,0.,4.8,7.,4.8,0.,4.8,0.,4.8
1979-07-05 15:00:43.830 ,1,0,0.,4.8,3.,4.8,1.,4.8,0.,4.8
1979-07-05 15:00:48.630 ,2,0,0.,4.8,0.,4.8,0.,4.8,0.,4.8
1979-07-05 15:00:53.430 ,2,0,0.,4.8,5.,4.8,1.,4.8,1.,4.8
1979-07-05 15:00:58.230 ,2,0,0.,4.8,2.,4.8,1.,4.8,0.,4.8
1979-07-05 15:01:03.030 ,2,0,0.,4.8,4.,4.8,0.,4.8,1.,4.8
1979-07-05 15:01:07.830 ,2,0,0.,4.8,0.,4.8,2.,4.8,1.,4.8
1979-07-05 15:01:12.630 ,2,0,0.,4.8,5.,4.8,1.,4.8,0.,4.8
1979-07-05 15:01:17.430 ,2,0,0.,4.8,7.,4.8,1.,4.8,1.,4.8
1979-07-05 15:01:22.230 ,2,0,0.,4.8,3.,4.8,2.,4.8,1.,4.8
1979-07-05 15:01:27.030 ,2,0,0.,4.8,4.,4.8,1.,4.8,1.,4.8
1979-07-05 15:01:31.830 ,2,0,0.,4.8,4.,4.8,0.,4.8,1.,4.8
1979-07-05 15:01:36.630 ,3,0,0.,4.8,4.,4.8,2.,4.8,0.,4.8
1979-07-05 15:01:41.430 ,3,0,0.,4.8,2.,4.8,1.,4.8,0.,4.8
1979-07-05 15:01:46.230 ,3,0,0.,4.8,3.,4.8,2.,4.8,1.,4.8
1979-07-05 15:01:51.030 ,3,0,0.,4.8,7.,4.8,3.,4.8,0.,4.8
1979-07-05 15:01:55.830 ,3,0,0.,4.8,6.,4.8,0.,4.8,0.,4.8
1979-07-05 15:02:00.630 ,3,0,0.,4.8,5.,4.8,1.,4.8,0.,4.8
1979-07-05 15:02:05.430 ,3,0,0.,4.8,4.,4.8,3.,4.8,1.,4.8
1979-07-05 15:02:10.230 ,3,0,0.,4.8,3.,4.8,1.,4.8,1.,4.8
1979-07-05 15:02:15.030 ,3,0,0.,4.8,7.,4.8,0.,4.8,1.,4.8
1979-07-05 15:02:19.830 ,3,0,0.,4.8,10.,4.8,2.,4.8,1.,4.8
1979-07-05 15:02:24.630 ,4,0,0.,4.8,6.,4.8,1.,4.8,0.,4.8
1979-07-05 15:02:29.430 ,4,0,0.,4.8,4.,4.8,0.,4.8,1.,4.8
1979-07-05 15:02:34.230 ,4,0,0.,4.8,1.,4.8,0.,4.8,2.,4.8
1979-07-05 15:02:39.030 ,4,0,0.,4.8,7.,4.8,2.,4.8,0.,4.8
1979-07-05 15:02:43.830 ,4,0,1.,4.8,4.,4.8,2.,4.8,1.,4.8
1979-07-05 15:02:48.630 ,4,0,0.,4.8,3.,4.8,0.,4.8,0.,4.8
1979-07-05 15:02:53.430 ,4,0,0.,4.8,3.,4.8,1.,4.8,0.,4.8
1979-07-05 15:02:58.230 ,4,0,0.,4.8,5.,4.8,1.,4.8,0.,4.8
1979-07-05 15:03:03.030 ,4,0,0.,4.8,4.,4.8,1.,4.8,0.,4.8
1979-07-05 15:03:07.830 ,4,0,0.,4.8,6.,4.8,0.,4.8,0.,4.8
1979-07-05 15:03:12.630 ,5,0,0.,4.8,1.,4.8,1.,4.8,1.,4.8
1979-07-05 15:03:17.430 ,5,0,0.,4.8,2.,4.8,1.,4.8,0.,4.8
1979-07-05 15:03:22.230 ,5,0,0.,4.8,3.,4.8,0.,4.8,0.,4.8
1979-07-05 15:03:27.030 ,5,0,0.,4.8,0.,4.8,2.,4.8,1.,4.8
1979-07-05 15:03:31.830 ,5,0,0.,4.8,2.,4.8,1.,4.8,1.,4.8
1979-07-05 15:03:36.630 ,5,0,0.,4.8,2.,4.8,1.,4.8,1.,4.8
1979-07-05 15:03:41.430 ,5,0,0.,4.8,1.,4.8,0.,4.8,0.,4.8
1979-07-05 15:03:46.230 ,5,0,0.,4.8,4.,4.8,0.,4.8,2.,4.8
1979-07-05 15:03:51.030 ,5,0,0.,4.8,2.,4.8,1.,4.8,1.,4.8
1979-07-05 15:03:55.830 ,5,0,0.,4.8,0.,4.8,2.,4.8,1.,4.8
1979-07-05 15:04:00.630 ,6,0,0.,4.8,1.,4.8,0.,4.8,0.,4.8
1979-07-05 15:04:05.430 ,6,0,0.,4.8,4.,4.8,0.,4.8,0.,4.8
1979-07-05 15:04:10.230 ,6,0,0.,4.8,5.,4.8,2.,4.8,1.,4.8
1979-07-05 15:04:15.030 ,6,0,0.,4.8,1.,4.8,0.,4.8,2.,4.8
1979-07-05 15:04:19.830 ,6,0,0.,4.8,6.,4.8,0.,4.8,0.,4.8
1979-07-05 15:04:24.630 ,0,0,0.,4.8,2.,4.8,0.,4.8,2.,4.8
1979-07-05 15:04:29.430 ,0,0,0.,4.8,3.,4.8,0.,4.8,1.,4.8
1979-07-05 15:04:34.230 ,0,0,0.,4.8,3.,4.8,0.,4.8,1.,4.8
1979-07-05 15:04:39.030 ,0,0,0.,4.8,2.,4.8,0.,4.8,1.,4.8
1979-07-05 15:04:43.830 ,0,0,0.,4.8,3.,4.8,2.,4.8,1.,4.8
1979-07-05 15:04:55.230 ,0,0,,0,,0,,0,,0
1979-07-05 15:05:00.030 ,0,0,,0,,0,,0,,0
1979-07-05 15:05:04.830 ,0,0,0.,4.8,1.,4.8,0.,4.8,0.,4.8
1979-07-05 15:05:09.630 ,0,0,0.,4.8,0.,4.8,0.,4.8,0.,4.8
1979-07-05 15:05:14.430 ,0,0,0.,4.8,1.,4.8,0.,4.8,0.,4.8
1979-07-05 15:05:12.630 ,0,0,0.,4.8,0.,4.8,0.,4.8,0.,4.8
1979-07-05 15:05:17.430 ,0,0,0.,4.8,0.,4.8,0.,4.8,0.,4.8
1979-07-05 15:05:22.230 ,0,0,0.,4.8,0.,4.8,0.,4.8,0.,4.8
1979-07-05 15:05:27.030 ,0,0,0.,4.8,0.,4.8,0.,4.8,0.,4.8
1979-07-05 15:05:31.830 ,0,0,0.,4.8,0.,4.8,0.,4.8,0.,4.8
1979-07-05 15:05:36.630 ,7,0,0.,4.8,0.,4.8,0.,4.8,1.,4.8
1979-07-05 15:05:41.430 ,7,0,0.,4.8,0.,4.8,0.,4.8,0.,4.8
1979-07-05 15:05:46.230 ,7,0,0.,4.8,0.,4.8,0.,4.8,0.,4.8
1979-07-05 15:05:51.030 ,7,0,0.,4.8,0.,4.8,1.,4.8,0.,4.8
1979-07-05 15:05:55.830 ,7,0,0.,4.8,0.,4.8,0.,4.8,0.,4.8
1979-07-05 15:06:00.630 ,7,0,0.,4.8,0.,4.8,0.,4.8,0.,4.8
1979-07-05 15:06:05.430 ,7,0,0.,4.8,0.,4.8,0.,4.8,0.,4.8
1979-07-05 15:06:10.230 ,7,0,0.,4.8,0.,4.8,0.,4.8,0.,4.8
1979-07-05 15:06:15.030 ,7,0,0.,4.8,1.,4.8,0.,4.8,0.,4.8
1979-07-05 15:06:19.830 ,7,0,0.,4.8,0.,4.8,0.,4.8,0.,4.8
1979-07-05 15:06:24.630 ,6,0,0.,4.8,0.,4.8,1.,4.8,0.,4.8
1979-07-05 15:06:29.430 ,6,0,0.,4.8,1.,4.8,0.,4.8,0.,4.8
1979-07-05 15:06:34.230 ,6,0,0.,4.8,0.,4.8,0.,4.8,0.,4.8
1979-07-05 15:06:39.030 ,6,0,0.,4.8,4.,4.8,3.,4.8,0.,4.8
1979-07-05 15:06:43.830 ,6,0,0.,4.8,3.,4.8,1.,4.8,1.,4.8
1979-07-05 15:06:48.630 ,6,0,0.,4.8,0.,4.8,1.,4.8,0.,4.8
1979-07-05 15:06:53.430 ,6,0,0.,4.8,3.,4.8,0.,4.8,2.,4.8
1979-07-05 15:06:58.230 ,6,0,0.,4.8,2.,4.8,1.,4.8,0.,4.8
1979-07-05 15:07:03.030 ,6,0,,0,,0,,0,,0
1979-07-05 15:07:07.830 ,6,0,0.,4.8,3.,4.8,0.,4.8,0.,4.8
1979-07-05 15:07:12.630 ,5,0,0.,4.8,5.,4.8,2.,4.8,1.,4.8
1979-07-05 15:07:17.430 ,5,0,0.,4.8,4.,4.8,1.,4.8,0.,4.8
1979-07-05 15:07:22.230 ,5,0,0.,4.8,3.,4.8,2.,4.8,0.,4.8
1979-07-05 15:07:27.030 ,5,0,0.,4.8,3.,4.8,0.,4.8,1.,4.8
1979-07-05 15:07:31.830 ,5,0,0.,4.8,5.,4.8,1.,4.8,0.,4.8
1979-07-05 15:07:36.630 ,7,0,,0,,0,,0,,0
1979-07-05 15:07:41.430 ,7,0,,0,,0,,0,,0
1979-07-05 15:07:46.230 ,7,0,0.,4.8,4.,4.8,2.,4.8,0.,4.8
1979-07-05 15:07:51.030 ,7,0,0.,4.8,4.,4.8,1.,4.8,0.,4.8
1979-07-05 15:07:55.830 ,7,0,0.,4.8,2.,4.8,1.,4.8,0.,4.8
1979-07-05 15:08:00.630 ,4,0,0.,4.8,3.,4.8,1.,4.8,0.,4.8
1979-07-05 15:08:05.430 ,4,0,0.,4.8,0.,4.8,0.,4.8,1.,4.8
1979-07-05 15:08:10.230 ,4,0,0.,4.8,3.,4.8,1.,4.8,0.,4.8
1979-07-05 15:08:15.030 ,4,0,0.,4.8,3.,4.8,0.,4.8,1.,4.8
1979-07-05 15:08:19.830 ,4,0,0.,4.8,4.,4.8,2.,4.8,2.,4.8
1979-07-05 15:08:24.630 ,4,0,0.,4.8,3.,4.8,1.,4.8,0.,4.8
1979-07-05 15:08:29.430 ,4,0,0.,4.8,4.,4.8,1.,4.8,1.,4.8
1979-07-05 15:08:34.230 ,4,0,0.,4.8,1.,4.8,2.,4.8,1.,4.8
1979-07-05 15:08:39.030 ,4,0,0.,4.8,3.,4.8,1.,4.8,0.,4.8
1979-07-05 15:08:43.830 ,4,0,0.,4.8,4.,4.8,4.,4.8,0.,4.8
1979-07-05 15:08:48.630 ,3,0,0.,4.8,7.,4.8,5.,4.8,2.,4.8
1979-07-05 15:08:53.430 ,3,0,0.,4.8,0.,4.8,1.,4.8,0.,4.8
1979-07-05 15:08:58.230 ,3,0,0.,4.8,3.,4.8,3.,4.8,3.,4.8
1979-07-05 15:09:03.030 ,3,0,0.,4.8,1.,4.8,1.,4.8,1.,4.8
1979-07-05 15:09:07.830 ,3,0,0.,4.8,2.,4.8,2.,4.8,1.,4.8
1979-07-05 15:09:12.630 ,3,0,0.,4.8,6.,4.8,2.,4.8,1.,4.8
1979-07-05 15:09:17.430 ,3,0,0.,4.8,7.,4.8,1.,4.8,1.,4.8
1979-07-05 15:09:22.230 ,3,0,0.,4.8,7.,4.8,1.,4.8,1.,4.8
1979-07-05 15:09:27.030 ,3,0,0.,4.8,7.,4.8,2.,4.8,1.,4.8
1979-07-05 15:09:31.830 ,3,0,0.,4.8,1.,4.8,0.,4.8,1.,4.8
1979-07-05 15:09:36.630 ,2,0,0.,4.8,5.,4.8,4.,4.8,0.,4.8
1979-07-05 15:09:41.430 ,2,0,0.,4.8,5.,4.8,1.,4.8,0.,4.8
1979-07-05 15:09:46.230 ,2,0,0.,4.8,2.,4.8,2.,4.8,0.,4.8
1979-07-05 15:09:51.030 ,2,0,0.,4.8,5.,4.8,1.,4.8,0.,4.8
1979-07-05 15:09:55.830 ,2,0,0.,4.8,3.,4.8,1.,4.8,0.,4.8
1979-07-05 15:10:00.630 ,2,0,0.,4.8,6.,4.8,1.,4.8,0.,4.8
1979-07-05 15:10:05.430 ,2,0,0.,4.8,6.,4.8,1.,4.8,3.,4.8
1979-07-05 15:10:10.230 ,2,0,0.,4.8,2.,4.8,0.,4.8,0.,4.8
1979-07-05 15:10:15.030 ,2,0,0.,4.8,4.,4.8,1.,4.8,1.,4.8
1979-07-05 15:10:19.830 ,2,0,0.,4.8,5.,4.8,2.,4.8,0.,4.8
1979-07-05 15:10:24.630 ,1,0,0.,4.8,1.,4.8,1.,4.8,1.,4.8
1979-07-05 15:10:29.430 ,1,0,0.,4.8,1.,4.8,0.,4.8,1.,4.8
1979-07-05 15:10:34.230 ,1,0,0.,4.8,5.,4.8,1.,4.8,0.,4.8
1979-07-05 15:10:39.030 ,1,0,0.,4.8,5.,4.8,0.,4.8,0.,4.8
1979-07-05 15:10:43.830 ,1,0,0.,4.8,4.,4.8,1.,4.8,0.,4.8
1979-07-05 15:10:48.630 ,0,0,0.,4.8,4.,4.8,7.,4.8,0.,4.8
1979-07-05 15:10:53.430 ,0,0,0.,4.8,1.,4.8,1.,4.8,0.,4.8
1979-07-05 15:10:58.230 ,0,0,0.,4.8,3.,4.8,0.,4.8,0.,4.8
1979-07-05 15:11:03.030 ,0,0,0.,4.8,2.,4.8,0.,4.8,0.,4.8
1979-07-05 15:11:07.830 ,0,0,0.,4.8,2.,4.8,1.,4.8,0.,4.8
1979-07-05 15:11:10.830 ,0,0,,0,,0,,0,,0
1979-07-05 15:11:15.630 ,0,0,,0,,0,,0,,0
1979-07-05 15:11:20.430 ,0,0,,0,,0,,0,,0
1979-07-05 15:11:25.230 ,0,0,,0,,0,,0,,0
1979-07-05 15:11:30.030 ,0,0,,0,,0,,0,,0
1979-07-05 15:11:10.830 ,0,0,,0,,0,,0,,0
1979-07-05 15:11:15.630 ,0,0,,0,,0,,0,,0
1979-07-05 15:11:20.430 ,0,0,,0,,0,,0,,0
1979-07-05 15:11:25.230 ,0,0,,0,,0,,0,,0
1979-07-05 15:11:30.030 ,0,0,,0,,0,,0,,0
1979-07-05 15:11:11.430 ,0,0,,0,,0,,0,,0
1979-07-05 15:11:16.230 ,0,0,,0,,0,,0,,0
1979-07-05 15:11:21.030 ,0,0,,0,,0,,0,,0
1979-07-05 15:11:25.830 ,0,0,,0,,0,,0,,0
1979-07-05 15:11:30.630 ,0,0,,0,,0,,0,,0
1979-07-05 15:11:12.630 ,0,0,0.,4.8,3.,4.8,0.,4.8,2.,4.8
1979-07-05 15:11:17.430 ,0,0,0.,4.8,3.,4.8,2.,4.8,0.,4.8
1979-07-05 15:11:22.230 ,0,0,0.,4.8,4.,4.8,2.,4.8,2.,4.8
1979-07-05 15:11:27.030 ,0,0,0.,4.8,3.,4.8,2.,4.8,2.,4.8
1979-07-05 15:11:31.830 ,0,0,0.,4.8,7.,4.8,0.,4.8,3.,4.8
1979-07-05 15:11:36.630 ,0,0,0.,4.8,9.,4.8,1.,4.8,0.,4.8
1979-07-05 15:11:41.430 ,0,0,0.,4.8,4.,4.8,1.,4.8,1.,4.8
1979-07-05 15:11:46.230 ,0,0,0.,4.8,4.,4.8,1.,4.8,0.,4.8
1979-07-05 15:11:51.030 ,0,0,0.,4.8,8.,4.8,2.,4.8,0.,4.8
1979-07-05 15:11:55.830 ,0,0,0.,4.8,6.,4.8,0.,4.8,0.,4.8
1979-07-05 15:12:00.630 ,0,0,0.,4.8,4.,4.8,2.,4.8,1.,4.8
1979-07-05 15:12:05.430 ,0,0,0.,4.8,3.,4.8,1.,4.8,0.,4.8
1979-07-05 15:12:10.230 ,0,0,0.,4.8,8.,4.8,2.,4.8,1.,4.8
1979-07-05 15:12:15.030 ,0,0,0.,4.8,3.,4.8,2.,4.8,1.,4.8
1979-07-05 15:12:19.830 ,0,0,0.,4.8,5.,4.8,0.,4.8,1.,4.8
1979-07-05 15:12:24.630 ,0,0,0.,4.8,10.,4.8,3.,4.8,1.,4.8
1979-07-05 15:12:29.430 ,0,0,0.,4.8,4.,4.8,0.,4.8,0.,4.8
1979-07-05 15:12:34.230 ,0,0,1.,4.8,5.,4.8,1.,4.8,0.,4.8
1979-07-05 15:12:39.030 ,0,0,0.,4.8,3.,4.8,0.,4.8,2.,4.8
1979-07-05 15:12:43.830 ,0,0,0.,4.8,10.,4.8,2.,4.8,0.,4.8
1979-07-05 15:12:48.630 ,1,0,0.,4.8,3.,4.8,2.,4.8,0.,4.8
1979-07-05 15:12:53.430 ,1,0,0.,4.8,3.,4.8,1.,4.8,0.,4.8
1979-07-05 15:12:58.230 ,1,0,0.,4.8,2.,4.8,0.,4.8,1.,4.8
1979-07-05 15:13:03.030 ,1,0,0.,4.8,4.,4.8,1.,4.8,1.,4.8
1979-07-05 15:13:07.830 ,1,0,0.,4.8,2.,4.8,0.,4.8,0.,4.8
1979-07-05 15:13:12.630 ,1,0,0.,4.8,6.,4.8,0.,4.8,0.,4.8
1979-07-05 15:13:17.430 ,1,0,0.,4.8,6.,4.8,0.,4.8,2.,4.8
1979-07-05 15:13:22.230 ,1,0,0.,4.8,2.,4.8,0.,4.8,0.,4.8
1979-07-05 15:13:27.030 ,1,0,0.,4.8,3.,4.8,2.,4.8,0.,4.8
1979-07-05 15:13:31.830 ,1,0,0.,4.8,4.,4.8,0.,4.8,2.,4.8
1979-07-05 15:13:36.630 ,2,0,0.,4.8,4.,4.8,1.,4.8,0.,4.8
1979-07-05 15:13:41.430 ,2,0,0.,4.8,3.,4.8,0.,4.8,1.,4.8
1979-07-05 15:13:46.230 ,2,0,0.,4.8,1.,4.8,1.,4.8,0.,4.8
1979-07-05 15:13:51.030 ,2,0,0.,4.8,4.,4.8,0.,4.8,1.,4.8
1979-07-05 15:13:55.830 ,2,0,0.,4.8,2.,4.8,2.,4.8,0.,4.8
1979-07-05 15:14:00.630 ,2,0,0.,4.8,4.,4.8,1.,4.8,1.,4.8
1979-07-05 15:14:05.430 ,2,0,0.,4.8,6.,4.8,1.,4.8,0.,4.8
1979-07-05 15:14:10.230 ,2,0,0.,4.8,8.,4.8,2.,4.8,1.,4.8
1979-07-05 15:14:15.030 ,2,0,0.,4.8,5.,4.8,6.,4.8,2.,4.8
1979-07-05 15:14:19.830 ,2,0,0.,4.8,3.,4.8,0.,4.8,0.,4.8
1979-07-05 15:14:24.630 ,3,0,0.,4.8,1.,4.8,0.,4.8,0.,4.8
1979-07-05 15:14:29.430 ,3,0,0.,4.8,7.,4.8,1.,4.8,0.,4.8
1979-07-05 15:14:34.230 ,3,0,0.,4.8,9.,4.8,2.,4.8,1.,4.8
1979-07-05 15:14:39.030 ,3,0,0.,4.8,8.,4.8,2.,4.8,0.,4.8
1979-07-05 15:14:43.830 ,3,0,0.,4.8,7.,4.8,1.,4.8,0.,4.8
1979-07-05 15:14:48.630 ,3,0,0.,4.8,9.,4.8,3.,4.8,1.,4.8
1979-07-05 15:14:53.430 ,3,0,0.,4.8,8.,4.8,3.,4.8,2.,4.8
1979-07-05 15:14:58.230 ,3,0,0.,4.8,14.,4.8,0.,4.8,2.,4.8
1979-07-05 15:15:03.030 ,3,0,0.,4.8,10.,4.8,2.,4.8,0.,4.8
1979-07-05 15:15:07.830 ,3,0,0.,4.8,9.,4.8,4.,4.8,1.,4.8
1979-07-05 15:15:12.630 ,4,0,0.,4.8,6.,4.8,3.,4.8,0.,4.8
1979-07-05 15:15:17.430 ,4,0,1.,4.8,5.,4.8,2.,4.8,1.,4.8
1979-07-05 15:15:22.230 ,4,0,0.,4.8,6.,4.8,1.,4.8,1.,4.8
1979-07-05 15:15:27.030 ,4,0,0.,4.8,6.,4.8,2.,4.8,2.,4.8
1979-07-05 15:15:31.830 ,4,0,0.,4.8,8.,4.8,3.,4.8,2.,4.8
1979-07-05 15:15:36.630 ,4,0,0.,4.8,4.,4.8,4.,4.8,0.,4.8
1979-07-05 15:15:41.430 ,4,0,0.,4.8,3.,4.8,0.,4.8,1.,4.8
1979-07-05 15:15:46.230 ,4,0,0.,4.8,5.,4.8,2.,4.8,0.,4.8
1979-07-05 15:15:51.030 ,4,0,0.,4.8,4.,4.8,1.,4.8,0.,4.8
1979-07-05 15:15:55.830 ,4,0,0.,4.8,4.,4.8,0.,4.8,0.,4.8
1979-07-05 15:16:00.630 ,5,0,0.,4.8,5.,4.8,0.,4.8,1.,4.8
1979-07-05 15:16:05.430 ,5,0,0.,4.8,5.,4.8,1.,4.8,0.,4.8
1979-07-05 15:16:10.230 ,5,0,0.,4.8,1.,4.8,1.,4.8,1.,4.8
1979-07-05 15:16:15.030 ,5,0,0.,4.8,1.,4.8,0.,4.8,0.,4.8
1979-07-05 15:16:19.830 ,5,0,0.,4.8,2.,4.8,0.,4.8,0.,4.8
1979-07-05 15:16:24.630 ,5,0,0.,4.8,4.,4.8,2.,4.8,1.,4.8
1979-07-05 15:16:29.430 ,5,0,0.,4.8,0.,4.8,3.,4.8,1.,4.8
1979-07-05 15:16:34.230 ,5,0,0.,4.8,2.,4.8,1.,4.8,0.,4.8
1979-07-05 15:16:39.030 ,5,0,0.,4.8,3.,4.8,1.,4.8,0.,4.8
1979-07-05 15:16:43.830 ,5,0,0.,4.8,5.,4.8,0.,4.8,0.,4.8
1979-07-05 15:16:48.630 ,6,0,0.,4.8,0.,4.8,2.,4.8,0.,4.8
1979-07-05 15:16:53.430 ,6,0,0.,4.8,1.,4.8,1.,4.8,0.,4.8
1979-07-05 15:16:58.230 ,6,0,0.,4.8,1.,4.8,1.,4.8,2.,4.8
1979-07-05 15:17:03.030 ,6,0,0.,4.8,3.,4.8,0.,4.8,0.,4.8
1979-07-05 15:17:07.830 ,6,0,0.,4.8,3.,4.8,0.,4.8,1.,4.8
1979-07-05 15:17:12.630 ,6,0,0.,4.8,1.,4.8,0.,4.8,0.,4.8
1979-07-05 15:17:17.430 ,6,0,0.,4.8,3.,4.8,1.,4.8,2.,4.8
1979-07-05 15:17:22.230 ,6,0,0.,4.8,3.,4.8,1.,4.8,0.,4.8
1979-07-05 15:17:27.030 ,6,0,0.,4.8,6.,4.8,1.,4.8,0.,4.8
1979-07-05 15:17:31.830 ,6,0,0.,4.8,3.,4.8,0.,4.8,1.,4.8
1979-07-05 15:17:36.630 ,7,0,0.,4.8,1.,4.8,0.,4.8,1.,4.8
1979-07-05 15:17:41.430 ,7,0,0.,4.8,3.,4.8,2.,4.8,0.,4.8
1979-07-05 15:17:46.230 ,7,0,0.,4.8,0.,4.8,0.,4.8,0.,4.8
1979-07-05 15:17:51.030 ,7,0,0.,4.8,0.,4.8,0.,4.8,0.,4.8
1979-07-05 15:17:55.830 ,7,0,0.,4.8,1.,4.8,0.,4.8,0.,4.8
1979-07-05 15:18:00.630 ,7,0,0.,4.8,0.,4.8,0.,4.8,0.,4.8
1979-07-05 15:18:05.430 ,7,0,0.,4.8,0.,4.8,0.,4.8,1.,4.8
1979-07-05 15:18:10.230 ,7,0,0.,4.8,0.,4.8,0.,4.8,0.,4.8
1979-07-05 15:18:15.030 ,7,0,0.,4.8,0.,4.8,0.,4.8,0.,4.8
1979-07-05 15:18:19.830 ,7,0,0.,4.8,0.,4.8,0.,4.8,1.,4.8
1979-07-05 15:18:24.630 ,7,0,0.,4.8,0.,4.8,0.,4.8,0.,4.8
1979-07-05 15:18:29.430 ,7,0,0.,4.8,0.,4.8,0.,4.8,0.,4.8
1979-07-05 15:18:34.230 ,7,0,0.,4.8,1.,4.8,0.,4.8,0.,4.8
1979-07-05 15:18:39.030 ,7,0,0.,4.8,1.,4.8,0.,4.8,0.,4.8
1979-07-05 15:18:43.830 ,7,0,0.,4.8,1.,4.8,0.,4.8,0.,4.8
1979-07-05 15:18:48.630 ,7,0,0.,4.8,0.,4.8,0.,4.8,0.,4.8
1979-07-05 15:18:53.430 ,7,0,0.,4.8,1.,4.8,0.,4.8,0.,4.8
1979-07-05 15:18:58.230 ,7,0,0.,4.8,0.,4.8,0.,4.8,0.,4.8
1979-07-05 15:19:03.030 ,7,0,0.,4.8,2.,4.8,0.,4.8,0.,4.8
1979-07-05 15:19:07.830 ,7,0,0.,4.8,0.,4.8,0.,4.8,0.,4.8
1979-07-05 15:19:12.630 ,6,0,0.,4.8,1.,4.8,1.,4.8,0.,4.8
1979-07-05 15:19:17.430 ,6,0,0.,4.8,0.,4.8,0.,4.8,0.,4.8
1979-07-05 15:19:22.230 ,6,0,0.,4.8,2.,4.8,1.,4.8,0.,4.8
1979-07-05 15:19:27.030 ,6,0,0.,4.8,3.,4.8,1.,4.8,1.,4.8
1979-07-05 15:19:31.830 ,6,0,0.,4.8,2.,4.8,1.,4.8,0.,4.8
1979-07-05 15:19:36.630 ,6,0,0.,4.8,1.,4.8,0.,4.8,1.,4.8
1979-07-05 15:19:41.430 ,6,0,0.,4.8,3.,4.8,1.,4.8,0.,4.8
1979-07-05 15:19:46.230 ,6,0,0.,4.8,3.,4.8,1.,4.8,0.,4.8
1979-07-05 15:19:51.030 ,6,0,0.,4.8,5.,4.8,0.,4.8,1.,4.8
1979-07-05 15:19:55.830 ,6,0,0.,4.8,1.,4.8,1.,4.8,0.,4.8
1979-07-05 15:20:00.630 ,5,0,0.,4.8,4.,4.8,0.,4.8,1.,4.8
1979-07-05 15:20:05.430 ,5,0,0.,4.8,6.,4.8,1.,4.8,0.,4.8
1979-07-05 15:20:10.230 ,5,0,0.,4.8,2.,4.8,2.,4.8,0.,4.8
1979-07-05 15:20:15.030 ,5,0,0.,4.8,1.,4.8,0.,4.8,0.,4.8
1979-07-05 15:20:19.830 ,5,0,0.,4.8,4.,4.8,1.,4.8,0.,4.8
1979-07-05 15:20:24.630 ,5,0,0.,4.8,1.,4.8,1.,4.8,0.,4.8
1979-07-05 15:20:29.430 ,5,0,0.,4.8,4.,4.8,0.,4.8,1.,4.8
1979-07-05 15:20:34.230 ,5,0,0.,4.8,3.,4.8,2.,4.8,0.,4.8
1979-07-05 15:20:39.030 ,5,0,0.,4.8,3.,4.8,1.,4.8,0.,4.8
1979-07-05 15:20:43.830 ,5,0,0.,4.8,1.,4.8,0.,4.8,0.,4.8
1979-07-05 15:20:48.630 ,4,0,0.,4.8,1.,4.8,0.,4.8,0.,4.8
1979-07-05 15:20:53.430 ,4,0,0.,4.8,0.,4.8,0.,4.8,0.,4.8
1979-07-05 15:20:58.230 ,4,0,0.,4.8,5.,4.8,1.,4.8,3.,4.8
1979-07-05 15:21:03.030 ,4,0,0.,4.8,5.,4.8,4.,4.8,1.,4.8
1979-07-05 15:21:07.830 ,4,0,0.,4.8,4.,4.8,1.,4.8,0.,4.8
1979-07-05 15:21:12.630 ,4,0,0.,4.8,1.,4.8,0.,4.8,0.,4.8
1979-07-05 15:21:17.430 ,4,0,0.,4.8,5.,4.8,2.,4.8,0.,4.8
1979-07-05 15:21:22.230 ,4,0,0.,4.8,5.,4.8,2.,4.8,2.,4.8
1979-07-05 15:21:27.030 ,4,0,0.,4.8,5.,4.8,3.,4.8,1.,4.8
1979-07-05 15:21:31.830 ,4,0,0.,4.8,3.,4.8,3.,4.8,0.,4.8
1979-07-05 15:21:36.630 ,3,0,0.,4.8,4.,4.8,1.,4.8,2.,4.8
1979-07-05 15:21:41.430 ,3,0,0.,4.8,4.,4.8,0.,4.8,1.,4.8
1979-07-05 15:21:46.230 ,3,0,1.,4.8,9.,4.8,3.,4.8,1.,4.8
1979-07-05 15:21:51.030 ,3,0,0.,4.8,6.,4.8,2.,4.8,2.,4.8
1979-07-05 15:21:55.830 ,3,0,0.,4.8,6.,4.8,2.,4.8,0.,4.8
1979-07-05 15:22:00.630 ,3,0,0.,4.8,3.,4.8,1.,4.8,1.,4.8
1979-07-05 15:22:05.430 ,3,0,0.,4.8,10.,4.8,3.,4.8,2.,4.8
1979-07-05 15:22:10.230 ,3,0,0.,4.8,15.,4.8,2.,4.8,1.,4.8
1979-07-05 15:22:15.030 ,3,0,0.,4.8,4.,4.8,4.,4.8,1.,4.8
1979-07-05 15:22:19.830 ,3,0,0.,4.8,7.,4.8,1.,4.8,1.,4.8
1979-07-05 15:22:24.630 ,2,0,0.,4.8,4.,4.8,0.,4.8,1.,4.8
1979-07-05 15:22:29.430 ,2,0,1.,4.8,5.,4.8,2.,4.8,2.,4.8
1979-07-05 15:22:34.230 ,2,0,0.,4.8,4.,4.8,2.,4.8,0.,4.8
1979-07-05 15:22:39.030 ,2,0,0.,4.8,5.,4.8,1.,4.8,1.,4.8
1979-07-05 15:22:43.830 ,2,0,0.,4.8,2.,4.8,0.,4.8,1.,4.8
1979-07-05 15:22:48.630 ,2,0,0.,4.8,2.,4.8,0.,4.8,1.,4.8
1979-07-05 15:22:53.430 ,2,0,0.,4.8,6.,4.8,0.,4.8,1.,4.8
1979-07-05 15:22:58.230 ,2,0,0.,4.8,5.,4.8,3.,4.8,1.,4.8
1979-07-05 15:23:03.030 ,2,0,0.,4.8,2.,4.8,1.,4.8,0.,4.8
1979-07-05 15:23:07.830 ,2,0,0.,4.8,3.,4.8,2.,4.8,1.,4.8
1979-07-05 15:23:12.630 ,1,0,0.,4.8,5.,4.8,0.,4.8,0.,4.8
1979-07-05 15:23:17.430 ,1,0,0.,4.8,5.,4.8,1.,4.8,1.,4.8
1979-07-05 15:23:22.230 ,1,0,0.,4.8,3.,4.8,2.,4.8,0.,4.8
1979-07-05 15:23:27.030 ,1,0,0.,4.8,2.,4.8,1.,4.8,0.,4.8
1979-07-05 15:23:31.830 ,1,0,0.,4.8,3.,4.8,0.,4.8,1.,4.8
1979-07-05 15:23:36.630 ,1,0,0.,4.8,5.,4.8,1.,4.8,0.,4.8
1979-07-05 15:23:41.430 ,1,0,0.,4.8,0.,4.8,1.,4.8,0.,4.8
1979-07-05 15:23:46.230 ,1,0,0.,4.8,7.,4.8,2.,4.8,1.,4.8
1979-07-05 15:23:51.030 ,1,0,0.,4.8,2.,4.8,0.,4.8,2.,4.8
1979-07-05 15:23:55.830 ,1,0,0.,4.8,5.,4.8,1.,4.8,0.,4.8
1979-07-05 15:24:00.630 ,0,0,0.,4.8,3.,4.8,0.,4.8,0.,4.8
1979-07-05 15:24:05.430 ,0,0,0.,4.8,1.,4.8,1.,4.8,0.,4.8
1979-07-05 15:24:10.230 ,0,0,0.,4.8,3.,4.8,5.,4.8,0.,4.8
1979-07-05 15:24:15.030 ,0,0,0.,4.8,7.,4.8,0.,4.8,0.,4.8
1979-07-05 15:24:19.830 ,0,0,0.,4.8,5.,4.8,1.,4.8,0.,4.8
1979-07-05 15:24:24.630 ,0,0,0.,4.8,3.,4.8,2.,4.8,2.,4.8
1979-07-05 15:24:29.430 ,0,0,0.,4.8,6.,4.8,1.,4.8,2.,4.8
1979-07-05 15:24:34.230 ,0,0,0.,4.8,3.,4.8,1.,4.8,1.,4.8
1979-07-05 15:24:39.030 ,0,0,0.,4.8,7.,4.8,3.,4.8,2.,4.8
1979-07-05 15:24:43.830 ,0,0,0.,4.8,5.,4.8,1.,4.8,2.,4.8
1979-07-05 15:24:48.630 ,0,0,0.,4.8,1.,4.8,0.,4.8,0.,4.8
1979-07-05 15:24:53.430 ,0,0,0.,4.8,2.,4.8,2.,4.8,0.,4.8
1979-07-05 15:24:58.230 ,0,0,0.,4.8,5.,4.8,1.,4.8,1.,4.8
1979-07-05 15:25:03.030 ,0,0,0.,4.8,4.,4.8,2.,4.8,0.,4.8
1979-07-05 15:25:07.830 ,0,0,0.,4.8,5.,4.8,1.,4.8,2.,4.8
1979-07-05 15:25:12.630 ,0,0,0.,4.8,3.,4.8,1.,4.8,2.,4.8
1979-07-05 15:25:17.430 ,0,0,0.,4.8,6.,4.8,0.,4.8,1.,4.8
1979-07-05 15:25:22.230 ,0,0,0.,4.8,9.,4.8,3.,4.8,0.,4.8
1979-07-05 15:25:27.030 ,0,0,0.,4.8,5.,4.8,1.,4.8,4.,4.8
1979-07-05 15:25:31.830 ,0,0,0.,4.8,5.,4.8,1.,4.8,1.,4.8
1979-07-05 15:25:36.630 ,1,0,0.,4.8,8.,4.8,2.,4.8,0.,4.8
1979-07-05 15:25:41.430 ,1,0,0.,4.8,5.,4.8,0.,4.8,0.,4.8
1979-07-05 15:25:46.230 ,1,0,0.,4.8,2.,4.8,2.,4.8,0.,4.8
1979-07-05 15:25:51.030 ,1,0,0.,4.8,3.,4.8,0.,4.8,0.,4.8
1979-07-05 15:25:55.830 ,1,0,0.,4.8,3.,4.8,1.,4.8,2.,4.8
1979-07-05 15:26:00.630 ,1,0,0.,4.8,5.,4.8,0.,4.8,2.,4.8
1979-07-05 15:26:05.430 ,1,0,,0,,0,,0,,0
1979-07-05 15:26:10.230 ,1,0,1.,4.8,3.,4.8,2.,4.8,0.,4.8
1979-07-05 15:26:15.030 ,1,0,0.,4.8,2.,4.8,1.,4.8,0.,4.8
1979-07-05 15:26:19.830 ,1,0,0.,4.8,3.,4.8,0.,4.8,1.,4.8
1979-07-05 15:26:24.630 ,2,0,0.,4.8,2.,4.8,1.,4.8,0.,4.8
1979-07-05 15:26:29.430 ,2,0,0.,4.8,5.,4.8,1.,4.8,0.,4.8
1979-07-05 15:26:34.230 ,2,0,0.,4.8,4.,4.8,1.,4.8,3.,4.8
1979-07-05 15:26:39.030 ,2,0,0.,4.8,4.,4.8,1.,4.8,0.,4.8
1979-07-05 15:26:43.830 ,2,0,0.,4.8,5.,4.8,2.,4.8,4.,4.8
1979-07-05 15:26:48.630 ,2,0,0.,4.8,1.,4.8,3.,4.8,1.,4.8
1979-07-05 15:26:53.430 ,2,0,0.,4.8,4.,4.8,1.,4.8,0.,4.8
1979-07-05 15:26:58.230 ,2,0,0.,4.8,3.,4.8,2.,4.8,0.,4.8
1979-07-05 15:27:03.030 ,2,0,0.,4.8,1.,4.8,1.,4.8,0.,4.8
1979-07-05 15:27:07.830 ,2,0,0.,4.8,3.,4.8,0.,4.8,0.,4.8
1979-07-05 15:27:12.630 ,3,0,0.,4.8,5.,4.8,2.,4.8,1.,4.8
1979-07-05 15:27:17.430 ,3,0,0.,4.8,3.,4.8,1.,4.8,0.,4.8
1979-07-05 15:27:22.230 ,3,0,0.,4.8,9.,4.8,3.,4.8,0.,4.8
1979-07-05 15:27:27.030 ,3,0,0.,4.8,5.,4.8,3.,4.8,1.,4.8
1979-07-05 15:27:31.830 ,3,0,0.,4.8,5.,4.8,6.,4.8,1.,4.8
1979-07-05 15:27:36.630 ,3,0,0.,4.8,2.,4.8,2.,4.8,0.,4.8
1979-07-05 15:27:41.430 ,3,0,0.,4.8,4.,4.8,2.,4.8,0.,4.8
1979-07-05 15:27:46.230 ,3,0,0.,4.8,2.,4.8,0.,4.8,3.,4.8
1979-07-05 15:27:51.030 ,3,0,0.,4.8,7.,4.8,4.,4.8,0.,4.8
1979-07-05 15:27:55.830 ,3,0,0.,4.8,5.,4.8,1.,4.8,2.,4.8
1979-07-05 15:28:00.630 ,4,0,0.,4.8,12.,4.8,2.,4.8,0.,4.8
1979-07-05 15:28:05.430 ,4,0,0.,4.8,6.,4.8,2.,4.8,1.,4.8
1979-07-05 15:28:10.230 ,4,0,0.,4.8,3.,4.8,1.,4.8,0.,4.8
1979-07-05 15:28:15.030 ,4,0,0.,4.8,3.,4.8,1.,4.8,0.,4.8
1979-07-05 15:28:19.830 ,4,0,0.,4.8,1.,4.8,2.,4.8,3.,4.8
1979-07-05 15:28:24.630 ,4,0,1.,4.8,2.,4.8,1.,4.8,1.,4.8
1979-07-05 15:28:29.430 ,4,0,0.,4.8,2.,4.8,2.,4.8,0.,4.8
1979-07-05 15:28:34.230 ,4,0,0.,4.8,1.,4.8,2.,4.8,1.,4.8
1979-07-05 15:28:39.030 ,4,0,0.,4.8,4.,4.8,1.,4.8,2.,4.8
1979-07-05 15:28:43.830 ,4,0,0.,4.8,6.,4.8,1.,4.8,2.,4.8
1979-07-05 15:28:48.630 ,5,0,0.,4.8,3.,4.8,0.,4.8,2.,4.8
1979-07-05 15:28:53.430 ,5,0,0.,4.8,4.,4.8,0.,4.8,1.,4.8
1979-07-05 15:28:58.230 ,5,0,0.,4.8,3.,4.8,1.,4.8,0.,4.8
1979-07-05 15:29:03.030 ,5,0,0.,4.8,1.,4.8,1.,4.8,1.,4.8
1979-07-05 15:29:07.830 ,5,0,0.,4.8,2.,4.8,1.,4.8,0.,4.8
1979-07-05 15:29:12.630 ,5,0,0.,4.8,2.,4.8,0.,4.8,0.,4.8
1979-07-05 15:29:17.430 ,5,0,0.,4.8,4.,4.8,1.,4.8,0.,4.8
1979-07-05 15:29:22.230 ,5,0,0.,4.8,7.,4.8,0.,4.8,0.,4.8
1979-07-05 15:29:27.030 ,5,0,0.,4.8,2.,4.8,1.,4.8,0.,4.8
1979-07-05 15:29:31.830 ,5,0,0.,4.8,1.,4.8,0.,4.8,0.,4.8
1979-07-05 15:29:36.630 ,6,0,0.,4.8,0.,4.8,0.,4.8,1.,4.8
1979-07-05 15:29:41.430 ,6,0,0.,4.8,2.,4.8,0.,4.8,1.,4.8
1979-07-05 15:29:46.230 ,6,0,0.,4.8,2.,4.8,2.,4.8,0.,4.8
1979-07-05 15:29:51.030 ,6,0,0.,4.8,2.,4.8,2.,4.8,0.,4.8
1979-07-05 15:29:55.830 ,6,0,0.,4.8,2.,4.8,3.,4.8,1.,4.8
1979-07-05 15:30:00.630 ,6,0,0.,4.8,3.,4.8,1.,4.8,0.,4.8
1979-07-05 15:30:05.430 ,6,0,0.,4.8,2.,4.8,1.,4.8,1.,4.8
1979-07-05 15:30:10.230 ,6,0,0.,4.8,6.,4.8,0.,4.8,0.,4.8
1979-07-05 15:30:15.030 ,6,0,0.,4.8,4.,4.8,0.,4.8,1.,4.8
1979-07-05 15:30:19.830 ,6,0,0.,4.8,3.,4.8,2.,4.8,0.,4.8
1979-07-05 15:30:24.630 ,7,0,0.,4.8,0.,4.8,1.,4.8,0.,4.8
1979-07-05 15:30:29.430 ,7,0,0.,4.8,4.,4.8,2.,4.8,1.,4.8
1979-07-05 15:30:34.230 ,7,0,0.,4.8,1.,4.8,0.,4.8,0.,4.8
1979-07-05 15:30:39.030 ,7,0,0.,4.8,0.,4.8,0.,4.8,0.,4.8
1979-07-05 15:30:43.830 ,7,0,0.,4.8,1.,4.8,0.,4.8,1.,4.8
1979-07-05 15:30:48.630 ,7,0,0.,4.8,0.,4.8,0.,4.8,0.,4.8
1979-07-05 15:30:53.430 ,7,0,0.,4.8,0.,4.8,0.,4.8,0.,4.8
1979-07-05 15:30:58.230 ,7,0,0.,4.8,0.,4.8,0.,4.8,1.,4.8
1979-07-05 15:31:03.030 ,7,0,0.,4.8,0.,4.8,0.,4.8,0.,4.8
1979-07-05 15:31:07.830 ,7,0,0.,4.8,1.,4.8,2.,4.8,1.,4.8
1979-07-05 15:31:12.630 ,3,1,0.,4.8,0.,4.8,0.,4.8,0.,4.8
1979-07-05 15:31:17.430 ,3,1,0.,4.8,1.,4.8,0.,4.8,1.,4.8
1979-07-05 15:31:22.230 ,3,1,0.,4.8,0.,4.8,2.,4.8,0.,4.8
1979-07-05 15:31:27.030 ,3,1,0.,4.8,3.,4.8,0.,4.8,0.,4.8
1979-07-05 15:31:31.830 ,3,1,0.,4.8,5.,4.8,5.,4.8,0.,4.8
1979-07-05 15:31:36.630 ,0,1,0.,4.8,5.,4.8,0.,4.8,0.,4.8
1979-07-05 15:31:41.430 ,0,1,0.,4.8,6.,4.8,3.,4.8,0.,4.8
1979-07-05 15:31:46.230 ,0,1,0.,4.8,4.,4.8,1.,4.8,0.,4.8
1979-07-05 15:31:51.030 ,0,1,0.,4.8,5.,4.8,1.,4.8,1.,4.8
1979-07-05 15:31:55.830 ,0,1,0.,4.8,2.,4.8,2.,4.8,0.,4.8
1979-07-05 15:32:00.630 ,4,1,0.,4.8,5.,4.8,0.,4.8,0.,4.8
1979-07-05 15:32:05.430 ,4,1,0.,4.8,3.,4.8,0.,4.8,1.,4.8
1979-07-05 15:32:10.230 ,4,1,0.,4.8,8.,4.8,0.,4.8,0.,4.8
1979-07-05 15:32:15.030 ,4,1,0.,4.8,6.,4.8,2.,4.8,1.,4.8
1979-07-05 15:32:19.830 ,4,1,0.,4.8,5.,4.8,1.,4.8,2.,4.8
1979-07-05 15:32:24.630 ,7,1,0.,4.8,7.,4.8,2.,4.8,1.,4.8
1979-07-05 15:32:29.430 ,7,1,0.,4.8,3.,4.8,2.,4.8,0.,4.8
1979-07-05 15:32:34.230 ,7,1,0.,4.8,3.,4.8,1.,4.8,0.,4.8